Vorticity
nan nan nan nan nan nan nan nan nan nan nan nan nan nan nan nan nan nan nan nan nan nan nan nan nan nan nan nan nan nan nan nan nan nan nan nan nan nan nan nan nan nan nan nan nan
nan 6 6 7 6 6 7 7 8 7 7 7 7 7 6 14 18 9 6 9 14 5 -0 1 8 7 6 9 8 5 6 8 7 5 10 9 7 6 5 3 3 6 17 16 nan
nan 6 7 6 7 7 7 8 8 8 8 7 7 8 9 15 14 8 5 17 13 -0 3 7 6 6 7 8 8 5 3 4 9 12 10 11 6 5 5 7 8 11 10 6 nan
nan 7 7 7 7 7 8 8 9 9 8 7 7 8 17 18 8 6 9 17 13 6 5 5 7 7 5 7 7 8 7 4 7 15 12 11 4 7 1 6 21 20 9 5 nan
nan 7 7 7 8 7 8 9 9 9 8 8 8 12 18 11 11 5 10 12 10 9 8 6 7 6 5 6 11 7 3 6 13 11 12 11 4 8 5 11 20 14 8 5 nan
nan 7 7 8 7 8 7 9 10 10 9 8 8 15 15 4 10 -0 2 10 8 8 9 7 6 6 7 7 7 4 8 13 18 14 12 7 7 6 13 12 10 8 5 5 nan
nan 7 8 6 7 8 8 9 10 10 10 9 11 14 9 10 -1 -1 10 9 5 7 7 8 7 7 5 7 8 8 11 11 10 13 10 9 7 10 14 10 5 5 6 6 nan
nan 5 7 8 8 8 8 10 14 16 13 11 12 11 5 8 3 11 11 9 10 8 7 12 8 7 7 8 8 11 10 3 3 11 13 7 4 16 14 7 5 5 6 8 nan
nan 5 5 7 8 9 9 12 21 20 13 10 8 7 7 9 11 14 12 10 9 9 12 9 7 7 9 8 6 7 8 6 5 7 11 9 5 15 17 7 5 5 7 6 nan
nan 7 5 6 9 10 15 22 17 10 9 7 7 8 10 6 9 12 13 11 7 9 8 6 7 5 5 8 8 6 6 6 6 7 15 12 7 11 14 9 6 5 5 6 nan
nan 8 7 7 9 17 23 17 11 8 6 5 3 4 5 10 11 10 11 9 6 9 7 9 9 8 6 6 8 7 4 5 10 11 7 10 9 11 13 9 7 7 6 5 nan
nan 7 7 7 14 23 14 7 8 7 12 13 5 6 7 9 9 11 11 8 8 8 8 10 11 10 8 8 5 5 4 11 8 9 12 8 6 11 14 12 10 8 6 7 nan
nan 7 9 10 21 16 8 10 5 7 8 13 14 10 14 9 5 10 9 8 10 7 8 5 14 9 5 6 7 5 8 6 9 9 10 8 6 8 9 10 13 9 9 8 nan
nan 8 6 22 20 7 12 6 10 9 7 14 9 12 13 6 12 12 10 5 11 12 5 9 9 7 6 5 8 9 11 9 15 9 2 8 10 11 9 6 9 12 10 10 nan
nan 9 12 18 13 7 5 8 14 8 8 13 10 10 12 8 10 11 9 14 11 9 7 9 10 8 5 11 7 10 8 11 14 11 8 10 7 8 11 12 11 10 8 10 nan
nan 6 16 19 11 7 4 14 11 8 7 9 12 10 7 8 6 11 9 8 9 7 8 8 6 11 11 10 8 7 7 7 7 8 8 9 10 8 9 12 11 10 10 10 nan
nan 12 20 11 7 8 13 14 8 7 7 8 10 12 9 9 7 11 14 7 7 7 6 6 7 6 10 6 9 8 7 5 6 4 8 10 9 9 10 14 19 16 7 8 nan
nan 26 23 6 5 8 12 10 7 7 8 5 10 15 12 6 5 11 13 3 4 10 12 10 8 8 8 8 6 11 6 10 12 7 9 11 7 5 10 14 13 11 12 10 nan
nan 25 10 14 11 9 12 7 9 6 3 8 15 13 10 6 9 11 12 12 4 2 7 11 6 12 10 13 15 10 9 10 12 10 8 8 10 9 12 7 7 8 10 9 nan
nan 11 10 18 14 7 9 7 8 5 7 10 9 11 13 12 7 9 9 10 10 8 5 10 9 9 11 5 9 12 12 7 8 9 9 6 9 15 16 12 9 10 8 8 nan
nan 7 13 14 8 10 10 9 9 10 8 6 8 8 11 13 11 10 6 9 14 10 7 5 9 9 8 12 7 9 4 5 8 10 12 9 10 12 8 19 16 9 12 10 nan
nan 11 9 9 8 9 13 9 7 11 9 8 11 10 9 8 12 13 10 11 18 8 6 4 6 7 10 11 9 9 12 9 9 9 5 9 13 11 13 19 15 13 15 11 nan
nan 12 10 12 11 9 9 10 9 10 7 10 11 13 8 8 11 14 8 15 15 9 7 4 7 10 9 8 9 10 10 9 9 12 11 4 8 11 15 17 14 15 12 8 nan
nan 13 9 10 10 9 10 10 11 11 11 9 10 10 8 15 11 8 11 19 17 10 9 4 1 10 7 3 10 13 10 7 4 10 7 6 7 15 12 10 10 12 12 8 nan
nan 8 11 11 7 7 9 9 9 12 13 10 9 4 13 16 16 13 8 9 13 11 15 10 5 6 8 9 8 13 16 7 4 8 4 12 8 5 17 19 11 8 11 9 nan
nan 9 9 10 11 12 11 9 8 10 11 8 4 7 16 12 10 17 19 10 8 11 10 8 14 9 5 14 14 11 11 7 9 7 10 5 11 11 13 18 14 9 8 7 nan
nan nan nan nan nan nan nan nan nan nan nan nan nan nan nan nan nan nan nan nan nan nan nan nan nan nan nan nan nan nan nan nan nan nan nan nan nan nan nan nan nan nan nan nan nan
CAPE
1 1 2 1 1 1 2 2 2 1 1 1 2 1 2 2 0 0 0 0 0 219 540 59 39 6 0 0 57 41 3 42 149 388 436 710 922 1214 924 1014 858 805 891 927 870
2 2 2 2 1 1 1 1 2 1 2 2 2 1 1 1 0 0 0 0 254 940 0 0 0 0 0 0 0 0 10 0 18 365 388 849 1060 1267 807 1069 1053 1021 951 1033 825
3 3 2 1 3 1 0 1 1 0 1 2 2 0 0 0 0 0 0 818 790 616 0 0 0 0 0 0 0 0 0 0 0 6 216 849 957 933 1086 1173 1145 1177 1113 1037 1102
2 1 2 3 5 3 1 1 1 0 0 1 1 0 0 0 0 0 223 746 831 0 0 0 0 0 0 0 0 0 0 0 0 0 427 856 684 888 1179 1155 1156 1197 1091 1167 1279
3 3 1 3 1 5 4 1 2 0 1 1 1 0 0 0 0 0 0 85 0 0 0 0 0 0 0 0 0 0 0 0 0 0 420 546 576 749 1065 1097 1077 1062 1097 1271 1307
4 4 0 0 0 3 3 2 0 0 0 1 1 0 0 0 0 0 0 0 0 0 0 0 0 0 0 0 0 0 0 0 0 0 390 406 326 923 1147 1020 1030 1032 1130 1299 1279
2 1 3 4 1 1 4 3 1 0 0 2 0 0 0 0 0 0 0 0 0 0 0 0 0 0 0 0 0 0 0 0 0 0 1 343 504 552 1054 1135 1096 1052 1073 1143 1236
2 3 4 4 5 1 1 2 2 2 1 0 0 0 0 0 0 0 0 0 0 0 0 0 0 0 0 0 0 0 0 0 0 0 0 7 11 250 1174 1199 1187 1100 1078 1001 1173
2 3 3 1 4 2 3 1 0 0 0 0 0 0 0 0 0 0 0 0 0 0 0 0 0 0 0 0 0 0 0 0 0 0 0 0 13 584 1118 1181 1203 1046 1151 1222 1313
0 2 3 3 3 2 1 0 0 0 0 0 0 0 0 0 0 0 0 0 0 0 0 0 0 0 0 0 0 0 0 0 0 0 127 17 147 647 1222 1172 1238 1130 1091 1102 1064
0 1 2 3 3 3 0 0 0 0 0 0 0 0 0 0 0 0 0 0 0 0 0 0 0 0 0 0 0 0 0 0 0 0 300 302 338 622 1111 1318 1263 1218 1191 1158 1105
1 0 2 3 2 0 0 0 0 0 0 0 0 0 0 0 0 0 0 0 0 0 0 0 0 0 0 0 0 0 0 0 0 147 317 278 426 485 735 1465 1484 1389 1351 1305 1262
1 0 1 1 0 0 0 0 0 0 0 0 0 0 0 0 0 0 0 0 0 0 0 0 0 0 0 0 0 0 0 0 0 98 102 209 408 262 82 100 1047 1290 1419 1330 1395
1 0 1 1 0 0 0 0 0 0 0 0 0 0 0 0 0 0 0 0 0 0 0 0 0 0 0 0 0 0 0 0 0 21 43 22 57 281 156 151 17 834 1111 1213 1252
0 0 0 0 0 0 0 0 0 0 0 0 0 0 0 0 0 0 0 0 0 0 0 0 0 0 0 0 0 0 0 0 0 0 37 9 139 326 3 153 122 580 337 319 759
0 0 0 0 0 0 0 0 0 0 0 0 0 0 0 0 0 0 0 0 0 0 0 0 0 0 0 0 0 0 0 0 0 0 0 0 56 57 70 238 61 130 91 214 334
0 0 2 0 0 0 0 0 0 0 0 0 0 0 0 0 0 0 0 0 0 0 0 0 0 0 0 0 0 0 0 0 0 0 0 0 10 8 2 2 24 92 186 267 1194
0 0 0 0 0 0 0 0 0 0 0 0 0 0 0 0 0 0 0 0 0 0 0 0 0 0 0 0 0 0 0 0 0 0 0 0 160 59 70 38 221 279 249 683 1700
0 0 0 0 0 0 0 0 0 0 0 0 0 0 0 0 0 0 0 0 0 0 0 0 0 0 0 0 0 0 0 0 0 0 0 2 192 271 127 280 169 274 529 1273 1708
0 0 0 0 0 0 0 0 0 0 0 0 0 0 0 0 0 0 0 0 0 0 0 0 0 0 0 0 0 0 0 0 0 4 0 56 244 344 480 381 226 317 440 1391 1692
0 0 0 0 0 0 0 0 0 0 0 0 0 0 0 0 0 0 0 0 0 0 0 0 0 0 0 0 0 0 0 0 0 0 0 5 41 287 420 291 369 384 419 1473 1790
0 0 0 0 0 0 0 0 0 0 0 0 0 0 0 0 0 0 0 0 0 0 0 0 0 0 0 0 0 0 0 3 0 227 167 273 220 34 341 215 355 331 635 1782 1885
0 0 0 0 0 0 0 0 0 0 0 0 0 0 0 0 0 0 0 0 0 0 0 0 0 0 0 0 2 42 0 0 0 120 520 299 139 129 292 227 167 271 1473 2011 1975
0 0 0 0 0 0 0 0 0 0 0 0 0 0 0 6 0 0 0 0 0 0 48 0 0 0 0 0 30 182 60 4 63 298 339 326 310 233 349 314 187 519 1582 2021 1811
0 0 1 0 0 0 0 0 9 275 112 33 18 5 12 119 0 0 0 0 0 10 0 0 0 0 0 0 0 105 110 16 62 72 193 188 279 289 3 236 282 1054 1588 1770 1435
0 0 0 0 0 0 0 18 209 349 285 132 108 272 176 170 90 85 1 0 0 0 0 0 0 47 91 82 9 126 29 2 16 5 4 245 415 217 70 248 329 1089 1380 1551 1238
0 0 0 0 0 0 35 133 185 203 248 292 263 318 363 260 12 1 0 0 0 0 0 0 4 55 5 126 153 231 256 150 240 199 306 369 341 47 524 199 440 970 1198 1468 1105